User: anonymous   Login
Location: Newark
(46.1292°N, 1.0086°W)
Time: 17:17:07
(UTC+00:00)
Language:

Transit 4A - Orbit

View from above orbital plane
View from above orbital plane
View from above satellite
View from above satellite

Ground track
Ground track

The orbit data is extracted from the following two-line orbital elements,

1   116U 61015A   21025.16311424 -.00000067  00000-0  79015-5 0  9994
2   116  66.8106  26.2089 0079525 217.6875 141.8617 13.91781956 23157
Epoch (UTC): 25 January 2021 03:54:53
Eccentricity: 0.0079525
inclination: 66.8106°
perigee height: 864 km
apogee height: 980 km
right ascension of ascending node: 26.2089°
argument of perigee: 217.6875°
revolutions per day: 13.91781956
mean anomaly at epoch: 141.8617°
orbit number at epoch: 2315

The dashed part of the orbit path shows where the satellite is in the earth's shadow,  

DLR